Starlink 34252

operational
NORAD ID: 64330 Int'l Des: 2025-124 Owner: SPXS Country: US Constellation: starlink
LEOCIRCULAR

关于 Starlink 34252

正在加载描述...

实时位置

正在加载3D地球...

即将过境

高度历史

Altitude vs Time

uPlot chart will show altitude changes over time

两行轨道根数

1 64330U 25124P 25306.48195303 .00036256 00000-0 13194-2 0 9991
2 64330 43.0007 120.2892 0000898 291.7068 68.3687 15.27610265 22326
Epoch: Nov 2, 2025 • Age: 40 hours

当前状态

高度 482.6 km
速度 7.63 km/s
星下点 20.84°N, 171.65°E
发射日期 Jun 10, 2025
运行时间 0.3 years
类型 internet

技术详情

分类 Payload
质量 575.00 kg
干质量 530.00 kg
总质量 575.00 kg
长度 0.30 m
直径 4.10 m
跨度 29.00 m
形状 Box + pan
制造商 SPXS
平台类型 Starlink V2MO
阶段状态 In Orbit
所有者/国家 SPXS/US

大型星座

Loading constellations...